Gemsa, Egypt

8:28 AM EET on September 26, 2017 (GMT +0200)
Gemsa

Weather History for 62463 - July, 2013

Change the Weather History Date:

Sunday, July 7, 2013

  Actual Average Record
Temperature  
Mean Temperature 88 °F -  
Max Temperature 97 °F 96 °F - ()
Min Temperature 78 °F 81 °F - ()
Cooling Degree Days 22    
Growing Degree Days 38 (Base 50)    
Moisture  
Dew Point 64 °F    
Average Humidity 44    
Maximum Humidity 69    
Minimum Humidity 12    
Precipitation  
Precipitation 0.00 in - - ()
Sea Level Pressure  
Sea Level Pressure 29.71 in    
Wind  
Wind Speed 16 mph ()    
Max Wind Speed 25 mph    
Max Gust Speed -    
Visibility 6.0 miles    
Events      
T = Trace of Precipitation, MM = Missing Value Source: Averaged Metar Reports

Daily Weather History Graph

Daily Weather History Graph

Search for Another Location

Airport or City:

Trip Planner

Search our weather history database for the weather conditions in past years. The results will help you decide how hot, cold, wet, or windy it might be!

Date:

Astronomy

Jul. 07, 2013 Rise Set
Actual Time 4:56 AM EET 6:43 PM EET
Civil Twilight 4:30 AM EET 7:09 PM EET
Nautical Twilight 3:58 AM EET 7:41 PM EET
Astronomical Twilight 3:25 AM EET 8:14 PM EET
Moon 4:10 AM EET (7/7) 5:59 PM EET (7/7)
Length of Visible Light 14h 39m
Length of Day
13h 46m
Waning Crescent, 1% of the Moon is Illuminated
Jul 7
Waning Crescent
Jul 8
New
Jul 16
First Quarter
Jul 22
Full
Jul 29
Last Quarter

Hourly Weather History & Observations

Time (EET) Temp. Heat Index Dew Point Humidity Pressure Visibility Wind Dir Wind Speed Gust Speed Precip Events Conditions
12:00 AM 86.0 °F 84.5 °F 55.4 °F 35% 29.71 in - NW 13.8 mph - N/A   Clear
1:00 AM 84.2 °F 84.4 °F 60.8 °F 45% 29.68 in - NW 17.3 mph - N/A   Clear
2:00 AM 83 °F - 63 °F 40% 29.70 in 6 mi NW 13.8 mph - -  
2:00 AM 82.4 °F 83.4 °F 62.6 °F 51% 29.68 in - NW 13.8 mph - N/A   Clear
3:00 AM 82.4 °F 83.9 °F 64.4 °F 54% 29.68 in - NNW 9.2 mph - N/A   Clear
4:00 AM 80.6 °F 81.8 °F 62.6 °F 54% 29.68 in - NNW 11.5 mph - N/A   Clear
5:00 AM 78.8 °F - 66.2 °F 65% 29.68 in - NW 12.7 mph - N/A   Clear
6:00 AM 78.8 °F - 68.0 °F 69% 29.68 in - NW 20.7 mph - N/A   Clear
8:00 AM 87 °F - 66 °F 40% 29.75 in 6 mi NNW 18.4 mph - -  
8:00 AM 86.0 °F 88.2 °F 66.2 °F 51% 29.74 in - NNW 18.4 mph - N/A   Clear
9:00 AM 87.8 °F 91.4 °F 68.0 °F 52% 29.74 in - North 23.0 mph - N/A   Clear
10:00 AM 89.6 °F 92.2 °F 66.2 °F 46% 29.77 in - North 23.0 mph - N/A   Clear
11:00 AM 93.2 °F 96.2 °F 66.2 °F 41% 29.74 in - North 23.0 mph - N/A   Clear
12:00 PM 93.2 °F 97.7 °F 68.0 °F 44% 29.71 in - North 25.3 mph - N/A   Clear
1:00 PM 96.8 °F 101.8 °F 68.0 °F 39% 29.71 in - NW 20.7 mph - N/A   Clear
2:00 PM 96 °F - 68 °F 30% 29.70 in 6 mi North 23.0 mph - -  
2:00 PM 96.8 °F - 35.6 °F 12% 29.68 in - North 23.0 mph - N/A   Clear
3:00 PM 95.0 °F 101.3 °F 69.8 °F 44% 29.68 in - North 20.7 mph - N/A   Clear
4:00 PM 95.0 °F 101.3 °F 69.8 °F 44% 29.77 in - North 23.0 mph - N/A   Clear
5:00 PM 93.2 °F 97.7 °F 68.0 °F 44% 29.68 in - North 25.3 mph - N/A   Clear
6:00 PM 91.4 °F 94.0 °F 66.2 °F 43% 29.68 in - North 23.0 mph - N/A   Clear
7:00 PM 89.6 °F 92.2 °F 66.2 °F 46% 29.71 in - North 23.0 mph - N/A   Clear
8:00 PM 89 °F - 65 °F 35% 29.72 in 6 mi North 23.0 mph - -  
8:00 PM 89.6 °F 91.1 °F 64.4 °F 43% 29.71 in - North 23.0 mph - N/A   Clear
9:00 PM 89.6 °F 88.9 °F 59.0 °F 36% 29.74 in - NNW 21.9 mph - N/A   Clear
10:00 PM 89.6 °F 91.1 °F 64.4 °F 43% 29.77 in - NNW 20.7 mph - N/A   Clear
11:00 PM 87.8 °F 87.1 °F 59.0 °F 38% 29.77 in - NNW 9.2 mph - N/A   Clear